Creek Data

    Home     View Charts     View Raw Data     Messages

ID Distance Battery Voltage Battery Current Internal Temp Internal Humidity External Temp Solar Input rssi snr Time Stamp Record
67268 13.0 3.51 -10 56 52 56 4.5 -74 8 02/25/2026 07:00 AM 50102
67267 13.0 3.54 -5 56 52 56 1.1 -76 9 02/25/2026 06:45 AM 50101
67266 13.0 3.75 -5 56 52 56 0 -77 7 02/25/2026 06:30 AM 50100
67265 13.0 3.54 -5 56 52 56 0.1 -81 8 02/25/2026 06:15 AM 50099
67264 13.0 3.54 -5 56 52 57 0 -83 8 02/25/2026 06:00 AM 50098
67263 13.0 3.54 -5 56 52 57 0 -80 8 02/25/2026 05:45 AM 50097
67262 13.0 3.76 -5 56 52 57 0.1 -79 8 02/25/2026 05:30 AM 50096
67261 13.0 3.76 -5 56 52 57 0 -78 8 02/25/2026 05:15 AM 50095
67260 13.0 3.55 -5 56 52 57 0.1 -77 8 02/25/2026 05:00 AM 50094
67259 13.0 3.59 -5 56 52 57 0 -77 8 02/25/2026 04:45 AM 50093
67258 13.0 3.55 -5 56 52 57 0 -76 8 02/25/2026 04:30 AM 50092
67257 13.0 3.56 -5 56 52 56 0 -75 9 02/25/2026 04:15 AM 50091
67256 13.0 3.55 -5 56 52 56 0.1 -75 9 02/25/2026 04:00 AM 50090
67255 13.0 3.77 -5 56 52 56 0 -75 8 02/25/2026 03:45 AM 50089
67254 13.0 3.77 -5 56 52 56 0 -75 8 02/25/2026 03:30 AM 50088
67253 12.9 3.59 -5 56 52 56 0 -76 8 02/25/2026 03:15 AM 50087
67252 12.9 3.60 -5 56 52 57 0 -77 8 02/25/2026 03:00 AM 50086
67251 12.9 3.59 -5 56 52 56 0 -79 8 02/25/2026 02:45 AM 50085
67250 12.9 3.77 -5 56 52 56 0 -81 8 02/25/2026 02:30 AM 50084
67249 12.9 3.57 -5 56 52 56 0 -83 8 02/25/2026 02:15 AM 50083
67248 12.9 3.61 -5 56 52 56 0 -84 8 02/25/2026 02:00 AM 50082
67247 12.9 3.77 -5 56 52 56 0 -84 8 02/25/2026 01:45 AM 50081
67246 12.9 3.60 -5 56 52 56 0.1 -84 7 02/25/2026 01:30 AM 50080
67245 12.9 3.58 -5 56 52 56 0 -84 8 02/25/2026 01:15 AM 50079
67244 12.9 3.77 -5 56 52 56 0 -84 7 02/25/2026 01:00 AM 50078